Location: Azul
(36.7830°S, 59.8500°W)
Time: 04:07:15
(UTC-03:00)

ISS - Pass Details

Date: 15 October 2019
Orbit: 411 x 421 km, 51.6° (Epoch: 15 October)

Event Time Altitude Azimuth Distance (km) Brightness Sun altitude
Exits shadow 03:49:01 15° 174° (S) 1,278 -0.9 -27.6°
Maximum altitude 03:49:55 16° 155° (SSE) 1,220 -0.8 -27.5°
Drops below altitude 10° 03:52:06 10° 115° (ESE) 1,526 0.0 -27.1°
Sets 03:54:50 0° 92° (E) 2,387 0.9 -26.7°
